sat.trackr.live / text

‹ back to catalog

STARLINK-38073

NORAD 69986 · 2026-159M

PAYLOAD ACTIVE UNKNOWN

§ Identity

Operator
Country
US
Launch date
2026-07-11
Launch site
AFWTR
Launch vehicle
Mass (kg)
RCS (m²)

Purposes: comms

External: N2YO · Heavens-Above · Gunter

§ Orbital elements

Epoch: 2026-09-19T23:46:24.975840Z

Period
92.95 min
Inclination
97.2828°
Eccentricity
0.0001582
Mean motion
15.49213951 rev/d
Perigee alt
417.9 km
Apogee alt
420.1 km
Semi-major
6,797.2 km
B*
5.5331e-4
RAAN
104.7312°
Arg perigee
73.3496°
Mean anomaly
286.7929°
Rev number
1,236

§ Raw data

STARLINK-380731 69986U 26159M   26262.99056685  .00030144  00000+0  55331-3 0  99982 69986  97.2828 104.7312 0001582  73.3496 286.7929 15.49213951 12367

JSON: /api/v1/satellites/69986 · /tle

For live sub-satellite position, see the globe view (requires WebGL).

§ Visibility from observer

Set your observer location to see the next 7 days of passes ≥ 10°. The values pass through the URL so the page stays shareable.

No JS? Fill the form by hand. The geolocation button needs JavaScript.